F4ELU-13 Weather Reports


Display with metric or nautical units.
time (UTC)temp
F
wind
direction
speed
MPH
gust
MPH
rain 1hr
in
rain 24hr
in
rain mn
in
humidity
%
barometer
mb
20260504231803 55 199 1.0 7.0 0.04 0.37 0.04 95 1010.8
20260504230903 55 225 0.0 2.0 0.02 0.35 0.02 94 1010.8
20260504230004 55 0 0.0 0.0 0.00 0.33 0.00 92 1010.7
20260504225403 55 0 0.0 0.0 0.00 0.33 0.33 92 1010.7
20260504224503 55 0 0.0 0.0 0.00 0.33 0.33 93 1010.7
20260504223603 55 0 0.0 0.0 0.00 0.33 0.33 92 1010.7
20260504222703 55 0 0.0 0.0 0.00 0.33 0.33 92 1010.7
20260504221803 55 0 0.0 0.0 0.00 0.33 0.33 92 1010.5
20260504220903 55 0 0.0 0.0 0.00 0.33 0.33 92 1010.6
20260504220003 55 0 0.0 0.0 0.00 0.33 0.33 92 1010.5
20260504215403 55 0 0.0 0.0 0.00 0.33 0.33 92 1010.5
20260504214503 55 0 0.0 0.0 0.00 0.33 0.33 92 1010.6
20260504213603 56 0 0.0 0.0 0.00 0.33 0.33 92 1010.6
20260504212703 56 0 0.0 0.0 0.00 0.33 0.33 90 1010.6
20260504211803 56 0 0.0 0.0 0.00 0.33 0.33 90 1010.7
20260504210903 56 0 0.0 0.0 0.00 0.33 0.33 91 1010.8
20260504210004 56 0 0.0 0.0 0.00 0.33 0.33 91 1010.7
20260504205403 56 0 0.0 0.0 0.00 0.33 0.33 92 1010.8
20260504204503 56 0 0.0 0.0 0.00 0.33 0.33 91 1010.8
20260504203603 56 0 0.0 0.0 0.00 0.33 0.33 90 1010.9
20260504202703 56 0 0.0 0.0 0.00 0.33 0.33 89 1010.9
20260504201803 57 0 0.0 0.0 0.00 0.33 0.33 88 1010.9
20260504200903 57 172 0.0 2.0 0.00 0.33 0.33 87 1010.9
20260504200003 58 174 1.0 4.0 0.00 0.33 0.33 85 1010.8
20260504195403 58 190 2.0 8.0 0.00 0.33 0.33 84 1010.9
20260504194503 58 188 2.0 7.0 0.00 0.33 0.33 84 1010.9
20260504193603 59 182 2.0 9.0 0.00 0.33 0.33 83 1010.8
20260504192703 59 183 3.0 8.0 0.00 0.33 0.33 83 1010.8
20260504191803 59 191 4.0 8.0 0.00 0.33 0.33 82 1010.7
20260504190903 59 185 2.0 6.0 0.00 0.33 0.33 83 1010.8
20260504190003 59 171 0.0 4.0 0.00 0.33 0.33 84 1010.8
20260504185403 58 0 0.0 0.0 0.00 0.33 0.33 86 1010.7
20260504184503 59 143 0.0 9.0 0.00 0.33 0.33 85 1010.8
20260504183603 58 171 5.0 9.0 0.00 0.33 0.33 84 1010.8
20260504182703 59 0 0.0 0.0 0.00 0.33 0.33 87 1010.7
20260504181803 60 127 0.0 2.0 0.00 0.33 0.33 86 1010.8
20260504180903 60 0 0.0 0.0 0.00 0.33 0.33 87 1010.7
20260504180003 60 90 0.0 2.0 0.00 0.33 0.33 86 1010.7
20260504175403 60 87 1.0 2.0 0.00 0.33 0.33 85 1010.7
20260504174503 60 98 0.0 4.0 0.00 0.33 0.33 86 1010.7
20260504173603 61 104 0.0 6.0 0.00 0.33 0.33 84 1010.7
20260504172703 61 105 0.0 6.0 0.00 0.33 0.33 83 1010.8
20260504171803 62 103 1.0 11.0 0.00 0.33 0.33 82 1010.7
20260504170903 62 99 4.0 11.0 0.00 0.33 0.33 80 1010.7
20260504150903 66 146 3.0 9.0 0.00 0.33 0.33 74 1010.9
20260504140903 63 183 2.0 11.0 0.00 0.33 0.33 81 1011.8
20260504081803 53 115 1.0 6.0 0.00 0.34 0.33 99 1013.0
20260504080903 52 90 0.0 2.0 0.00 0.34 0.33 99 1013.1
20260504050003 50 0 0.0 0.0 0.04 0.28 0.27 99 1012.9
20260504045403 50 0 0.0 0.0 0.06 0.28 0.27 99 1012.9
20260504044504 50 0 0.0 0.0 0.08 0.28 0.27 99 1012.9
20260504043603 50 0 0.0 0.0 0.11 0.27 0.26 99 1013.0
20260504042703 50 0 0.0 0.0 0.13 0.27 0.26 99 1013.0
20260504041803 50 0 0.0 0.0 0.17 0.27 0.26 99 1013.1
20260504040903 50 0 0.0 0.0 0.17 0.26 0.25 99 1013.1
20260504040004 50 0 0.0 0.0 0.17 0.25 0.24 99 1013.1
20260504035403 50 0 0.0 0.0 0.14 0.22 0.21 99 1013.1
20260504034503 50 0 0.0 0.0 0.12 0.20 0.19 99 1013.3
20260504033603 51 0 0.0 0.0 0.08 0.17 0.15 99 1013.3
20260504032703 51 225 0.0 4.0 0.06 0.14 0.13 99 1013.5
20260504031803 51 186 0.0 4.0 0.04 0.11 0.09 98 1013.4
20260504030903 51 194 0.0 4.0 0.02 0.09 0.08 97 1013.5
20260504030003 51 182 0.0 4.0 0.02 0.08 0.07 97 1013.3
20260504025403 51 176 0.0 4.0 0.04 0.08 0.07 96 1013.4
20260504024503 51 180 0.0 2.0 0.06 0.08 0.07 97 1013.3
20260504023603 51 90 0.0 2.0 0.07 0.08 0.07 98 1013.2
20260504022703 51 81 0.0 2.0 0.07 0.08 0.07 97 1013.4
20260504021803 51 109 0.0 2.0 0.06 0.07 0.06 96 1013.2
20260504020903 52 177 0.0 4.0 0.06 0.07 0.06 95 1013.3
20260504020003 52 171 0.0 6.0 0.05 0.06 0.05 94 1013.4
20260504015403 52 158 0.0 6.0 0.04 0.05 0.04 93 1013.4
20260504014503 53 157 2.0 6.0 0.01 0.02 0.01 90 1013.7
20260504013603 53 190 2.0 6.0 0.00 0.01 0.00 87 1013.7
20260504012703 53 178 2.0 6.0 0.00 0.01 0.00 86 1013.6
20260504011803 53 191 1.0 4.0 0.00 0.01 0.00 86 1013.5
20260504010903 53 181 0.0 4.0 0.00 0.01 0.00 83 1013.5
20260504010003 51 0 0.0 0.0 0.00 0.01 0.00 88 1013.3
20260504005403 51 0 0.0 0.0 0.00 0.01 0.00 90 1013.4
20260504004503 51 0 0.0 0.0 0.00 0.01 0.00 90 1013.4
20260504003603 51 0 0.0 0.0 0.00 0.01 0.00 88 1013.4
20260504002703 51 0 0.0 0.0 0.00 0.01 0.00 86 1013.3
20260504001803 51 0 0.0 0.0 0.00 0.01 0.00 85 1013.4
20260504000903 51 0 0.0 0.0 0.00 0.01 0.00 85 1013.4
20260504000003 52 0 0.0 0.0 0.00 0.01 0.00 84 1013.4
20260503235403 52 0 0.0 0.0 0.00 0.01 0.00 83 1013.3
20260503234503 52 0 0.0 0.0 0.00 0.01 0.00 83 1013.4
20260503233603 53 0 0.0 0.0 0.00 0.01 0.00 82 1013.6
20260503232703 53 0 0.0 0.0 0.00 0.01 0.00 80 1013.7